Location: Newark
(55.7167°N, 12.5667°E)
Time: 13:43:36
(UTC+00:00)

N. Korean satellite - Pass Details

Date: 14 December 2019
Orbit: 454 x 508 km, 97.2° (Epoch: 17 January)

Event Time Altitude Azimuth Distance (km) Brightness Sun altitude
Rises 15:31:15 0° 152° (SSE) 2,599 10.3 -7.0°
Reaches altitude 10° 15:33:22 10° 148° (SSE) 1,714 9.3 -7.2°
Maximum altitude 15:36:58 54° 71° (ENE) 619 6.7 -7.7°
Drops below altitude 10° 15:40:33 10° 354° (N) 1,703 9.1 -8.1°
Sets 15:42:39 0° 349° (N) 2,581 10.1 -8.3°
